| time (UTC) | temp F | wind direction | speed MPH | gust MPH | rain 1hr in | rain 24hr in | rain mn in | humidity % | barometer mb |
| 20260506072554 | 44 | 57 | 0.0 | 4.0 | 0.00 | 0.16 | 0.00 | 94 | 1013.7 |
| 20260506070458 | 44 | 111 | 1.0 | 4.0 | 0.00 | 0.16 | 0.00 | 94 | 1013.9 |
| 20260506061416 | 44 | 54 | 2.0 | 7.0 | 0.00 | 0.16 | 0.00 | 93 | 1014.3 |
| 20260506060419 | 44 | 52 | 1.0 | 4.0 | 0.00 | 0.16 | 0.00 | 93 | 1014.1 |
| 20260506051220 | 44 | 159 | 1.0 | 0.0 | 0.00 | 0.16 | 0.00 | 92 | 1013.4 |
| 20260506050226 | 44 | 117 | 1.0 | 3.0 | 0.00 | 0.16 | 0.00 | 92 | 1013.2 |
| 20260506044230 | 44 | 133 | 2.0 | 9.0 | 0.00 | 0.16 | 0.17 | 93 | 1012.6 |
| 20260506043218 | 45 | 116 | 1.0 | 9.0 | 0.00 | 0.16 | 0.17 | 95 | 1013.1 |
| 20260506042147 | 45 | 84 | 2.0 | 8.0 | 0.00 | 0.16 | 0.17 | 95 | 1012.5 |
| 20260506041116 | 45 | 45 | 2.0 | 8.0 | 0.00 | 0.16 | 0.17 | 95 | 1012.3 |
| 20260506040123 | 45 | 87 | 0.0 | 5.0 | 0.00 | 0.16 | 0.17 | 96 | 1012.4 |
| 20260506035125 | 45 | 42 | 0.0 | 6.0 | 0.00 | 0.16 | 0.17 | 95 | 1012.5 |
| 20260506034144 | 45 | 69 | 1.0 | 6.0 | 0.00 | 0.16 | 0.17 | 96 | 1012.6 |
| 20260506033200 | 45 | 14 | 2.0 | 7.0 | 0.00 | 0.16 | 0.17 | 95 | 1012.8 |
| 20260506032216 | 45 | 12 | 2.0 | 9.0 | 0.00 | 0.16 | 0.17 | 95 | 1013.1 |
| 20260506031235 | 45 | 0 | 2.0 | 9.0 | 0.00 | 0.16 | 0.17 | 95 | 1012.1 |
| 20260506025102 | 45 | 134 | 1.0 | 7.0 | 0.05 | 0.16 | 0.16 | 95 | 1011.3 |
| 20260506024126 | 45 | 331 | 1.0 | 9.0 | 0.27 | 0.14 | 0.16 | 95 | 1011.6 |
| 20260506023149 | 45 | 60 | 1.0 | 8.0 | 0.00 | 0.12 | 0.12 | 95 | 1011.4 |
| 20260506022129 | 45 | 108 | 2.0 | 9.0 | 0.00 | 0.12 | 0.12 | 95 | 1011.2 |
| 20260506021144 | 45 | 317 | 1.0 | 8.0 | 0.00 | 0.12 | 0.12 | 95 | 1011.1 |
| 20260506020149 | 45 | 149 | 1.0 | 8.0 | 0.00 | 0.12 | 0.12 | 95 | 1010.9 |
| 20260506014049 | 45 | 138 | 0.0 | 7.0 | 0.00 | 0.12 | 0.12 | 95 | 1010.6 |
| 20260506013029 | 45 | 24 | 1.0 | 7.0 | 0.00 | 0.12 | 0.12 | 95 | 1010.6 |
| 20260506010919 | 45 | 140 | 1.0 | 7.0 | 0.00 | 0.12 | 0.12 | 95 | 1010.2 |
| 20260506005920 | 46 | 73 | 1.0 | 7.0 | 0.00 | 0.12 | 0.12 | 95 | 1010.1 |
| 20260506004912 | 45 | 150 | 1.0 | 7.0 | 0.00 | 0.12 | 0.12 | 95 | 1010.1 |
| 20260506002736 | 46 | 92 | 2.0 | 10.0 | 0.00 | 0.10 | 0.10 | 95 | 1009.5 |
| 20260506001707 | 46 | 105 | 2.0 | 8.0 | 0.00 | 0.10 | 0.10 | 95 | 1009.6 |
| 20260506000645 | 46 | 221 | 1.0 | 9.0 | 0.00 | 0.10 | 0.10 | 95 | 1009.0 |
| 20260505235633 | 46 | 65 | 2.0 | 10.0 | 0.00 | 0.10 | 0.10 | 95 | 1009.0 |
| 20260505234621 | 46 | 122 | 2.0 | 10.0 | 0.00 | 0.10 | 0.10 | 95 | 1009.5 |
| 20260505232517 | 46 | 85 | 3.0 | 12.0 | 0.00 | 0.10 | 0.10 | 94 | 1008.9 |
| 20260505231538 | 47 | 59 | 2.0 | 12.0 | 0.00 | 0.10 | 0.10 | 94 | 1008.5 |
| 20260505230514 | 47 | 109 | 2.0 | 10.0 | 0.00 | 0.09 | 0.10 | 94 | 1008.9 |
| 20260505225505 | 47 | 143 | 2.0 | 10.0 | 0.00 | 0.09 | 0.10 | 93 | 1008.7 |
| 20260505224503 | 48 | 185 | 2.0 | 10.0 | 0.00 | 0.09 | 0.10 | 92 | 1009.1 |
| 20260505223506 | 48 | 63 | 2.0 | 10.0 | 0.00 | 0.09 | 0.10 | 91 | 1008.9 |
| 20260505222510 | 48 | 235 | 2.0 | 14.0 | 0.00 | 0.09 | 0.10 | 91 | 1008.5 |
| 20260505221503 | 48 | 148 | 4.0 | 14.0 | 0.00 | 0.09 | 0.10 | 90 | 1008.2 |
| 20260505215339 | 48 | 11 | 2.0 | 13.0 | 0.00 | 0.09 | 0.10 | 91 | 1008.4 |
| 20260505213224 | 48 | 243 | 2.0 | 8.0 | 0.00 | 0.09 | 0.10 | 91 | 1008.5 |
| 20260505212239 | 49 | 21 | 2.0 | 9.0 | 0.00 | 0.09 | 0.10 | 93 | 1008.2 |
| 20260505211217 | 49 | 140 | 2.0 | 9.0 | 0.00 | 0.09 | 0.10 | 93 | 1008.1 |
| 20260505210225 | 49 | 13 | 2.0 | 6.0 | 0.00 | 0.09 | 0.10 | 93 | 1008.1 |
| 20260505205151 | 50 | 165 | 1.0 | 6.0 | 0.00 | 0.09 | 0.10 | 94 | 1008.2 |
| 20260505204144 | 50 | 43 | 2.0 | 7.0 | 0.00 | 0.09 | 0.10 | 93 | 1008.4 |
| 20260505203204 | 50 | 41 | 1.0 | 7.0 | 0.00 | 0.09 | 0.10 | 94 | 1008.1 |
| 20260505202212 | 51 | 98 | 1.0 | 8.0 | 0.00 | 0.09 | 0.10 | 94 | 1007.8 |
| 20260505201222 | 51 | 74 | 2.0 | 8.0 | 0.00 | 0.09 | 0.10 | 94 | 1007.4 |
| 20260505200153 | 51 | 306 | 3.0 | 8.0 | 0.00 | 0.09 | 0.10 | 94 | 1007.5 |
| 20260505195204 | 51 | 95 | 2.0 | 8.0 | 0.00 | 0.09 | 0.10 | 93 | 1007.8 |
| 20260505193053 | 52 | 132 | 2.0 | 12.0 | 0.00 | 0.09 | 0.10 | 91 | 1008.2 |
| 20260505192103 | 53 | 102 | 2.0 | 15.0 | 0.00 | 0.09 | 0.10 | 91 | 1007.6 |
| 20260505191113 | 53 | 123 | 5.0 | 15.0 | 0.00 | 0.09 | 0.10 | 89 | 1007.4 |
| 20260505190111 | 53 | 114 | 2.0 | 10.0 | 0.00 | 0.09 | 0.10 | 87 | 1007.6 |
| 20260505185133 | 54 | 94 | 2.0 | 13.0 | 0.00 | 0.09 | 0.10 | 89 | 1007.7 |
| 20260505184111 | 54 | 102 | 3.0 | 13.0 | 0.00 | 0.09 | 0.10 | 87 | 1007.8 |
| 20260505182036 | 55 | 108 | 4.0 | 12.0 | 0.00 | 0.09 | 0.10 | 86 | 1007.3 |
| 20260505181032 | 56 | 123 | 3.0 | 12.0 | 0.00 | 0.09 | 0.10 | 87 | 1007.1 |
| 20260505180040 | 56 | 136 | 3.0 | 10.0 | 0.00 | 0.09 | 0.10 | 86 | 1007.1 |
| 20260505175029 | 56 | 148 | 2.0 | 9.0 | 0.00 | 0.09 | 0.10 | 86 | 1007.2 |
| 20260505174037 | 56 | 80 | 1.0 | 12.0 | 0.00 | 0.09 | 0.10 | 87 | 1007.2 |
| 20260505173029 | 56 | 157 | 3.0 | 12.0 | 0.00 | 0.09 | 0.10 | 87 | 1007.3 |
| 20260505170912 | 56 | 95 | 3.0 | 9.0 | 0.00 | 0.09 | 0.10 | 87 | 1007.2 |
| 20260505165902 | 56 | 322 | 2.0 | 10.0 | 0.00 | 0.09 | 0.10 | 87 | 1007.2 |
| 20260505163750 | 57 | 128 | 2.0 | 8.0 | 0.00 | 0.09 | 0.10 | 85 | 1007.1 |
| 20260505161641 | 57 | 51 | 3.0 | 12.0 | 0.00 | 0.09 | 0.10 | 88 | 1007.4 |
| 20260505160616 | 58 | 48 | 3.0 | 12.0 | 0.00 | 0.09 | 0.10 | 88 | 1007.6 |
| 20260505152647 | 59 | 130 | 6.0 | 11.0 | 0.00 | 0.09 | 0.10 | 88 | 1006.1 |
| 20260505151637 | 59 | 188 | 4.0 | 11.0 | 0.00 | 0.09 | 0.10 | 88 | 1006.0 |
| 20260505150608 | 59 | 113 | 5.0 | 9.0 | 0.00 | 0.09 | 0.10 | 86 | 1006.2 |
| 20260505140403 | 59 | 159 | 3.0 | 7.0 | 0.00 | 0.09 | 0.10 | 88 | 1006.2 |
| 20260505130300 | 57 | 126 | 3.0 | 10.0 | 0.00 | 0.09 | 0.10 | 89 | 1005.8 |
| 20260505124322 | 57 | 162 | 3.0 | 11.0 | 0.00 | 0.09 | 0.10 | 90 | 1005.7 |
| 20260505122208 | 58 | 173 | 4.0 | 10.0 | 0.00 | 0.09 | 0.10 | 91 | 1005.3 |
| 20260505121223 | 58 | 161 | 3.0 | 8.0 | 0.00 | 0.09 | 0.10 | 92 | 1005.6 |
| 20260505120240 | 58 | 108 | 1.0 | 8.0 | 0.00 | 0.09 | 0.10 | 92 | 1005.2 |
| 20260505115226 | 59 | 118 | 0.0 | 9.0 | 0.00 | 0.09 | 0.10 | 92 | 1005.4 |
| 20260505114203 | 59 | 175 | 1.0 | 6.0 | 0.00 | 0.09 | 0.10 | 93 | 1005.2 |
| 20260505113131 | 59 | 71 | 2.0 | 9.0 | 0.00 | 0.09 | 0.10 | 94 | 1004.5 |
| 20260505112142 | 60 | 220 | 1.0 | 1.0 | 0.00 | 0.09 | 0.10 | 95 | 1004.6 |
| 20260505111155 | 60 | 355 | 1.0 | 8.0 | 0.00 | 0.09 | 0.10 | 95 | 1005.8 |
| 20260505110139 | 60 | 67 | 2.0 | 8.0 | 0.00 | 0.09 | 0.10 | 94 | 1004.9 |
| 20260505102005 | 58 | 38 | 0.0 | 3.0 | 0.00 | 0.09 | 0.10 | 96 | 1004.4 |
| 20260505100958 | 59 | 203 | 0.0 | 0.0 | 0.00 | 0.09 | 0.10 | 95 | 1004.2 |
| 20260505100006 | 59 | 203 | 0.0 | 0.0 | 0.00 | 0.09 | 0.10 | 95 | 1004.0 |
| 20260505095005 | 59 | 203 | 0.0 | 0.0 | 0.00 | 0.09 | 0.10 | 94 | 1003.5 |
| 20260505094020 | 59 | 203 | 0.0 | 5.0 | 0.04 | 0.09 | 0.10 | 93 | 1003.5 |
| 20260505093002 | 59 | 290 | 3.0 | 10.0 | 0.04 | 0.09 | 0.10 | 94 | 1003.1 |
| 20260505092000 | 60 | 240 | 4.0 | 10.0 | 0.05 | 0.09 | 0.09 | 95 | 1002.7 |
| 20260505090947 | 60 | 211 | 1.0 | 4.0 | 0.06 | 0.08 | 0.08 | 94 | 1004.3 |
| 20260505084904 | 61 | 264 | 0.0 | 4.0 | 0.23 | 0.04 | 0.05 | 92 | 1005.3 |
| 20260505083845 | 61 | 22 | 0.0 | 0.0 | 0.08 | 0.02 | 0.02 | 91 | 1005.4 |
| 20260505082836 | 62 | 340 | 0.0 | 2.0 | 0.00 | 0.00 | 0.01 | 89 | 1005.3 |
| 20260505080638 | 63 | 204 | 2.0 | 10.0 | 0.00 | 0.00 | 0.00 | 83 | 1004.6 |